AirNav   Everest Fuels
 
 948 users online  

18MI Vacottage Heliport
Gladwin, Michigan, USA

GOING TO GLADWIN?


FAA INFORMATION EFFECTIVE 18 JUNE 2020

Location

FAA Identifier: 18MI
Lat/Long: 42-57-31.1180N 084-38-25.9570W
42-57.518633N 084-38.432617W
42.9586439,-84.6405436
(estimated)
Elevation: 840 ft. / 256 m (estimated)
Variation: 05W (1990)
From city: 6 miles W of GLADWIN, MI
Time zone: UTC -4 (UTC -5 during Standard Time)
Zip code: 48879

Heliport Operations

Heliport use: Private use. Permission required prior to landing
Activation date: 04/1992
Control tower: no
ARTCC: CLEVELAND CENTER
FSS: LANSING FLIGHT SERVICE STATION
Attendance: UNATNDD
Segmented circle: no

Heliport Communications

WX ASOS at LAN (11 nm S): 119.75 (517-908-8494)
WX AWOS-3 at Y70 (18 nm W): 118.9 (616-523-1852)

Nearby radio navigation aids

VOR radial/distance  VOR name  Freq  Var
VIOr079/39.1VICTORY VOR/DME115.9504W
FNTr275/39.2FLINT VORTAC116.9006W

Heliport Services

Runway Information

Helipad H1

Dimensions: 50 x 50 ft. / 15 x 15 m
Surface: turf
Traffic pattern: leftleft

Heliport Ownership and Management from official FAA records

Ownership: Privately-owned
Owner: DIANNE ROSE SKINNER
2611 S BAILEY LAKE AVE
GLADWIN, MI 48624
Phone 517-383-2113
Manager: DIANNE ROSE SKINNER
6601 PRESTON RD
HOWELL, MI 48855-7366
Phone 517-546-6905

Additional Remarks

E111-3 OF THE TOUCHDOWN AREA SHOWING OBSTRUCTIONS AND HAS DISCUSSED THE LANDING AREA WITH THE OWNER OF THE HELIPAD.
E111-2 MR. RICHARD HAGGERTY AND CENTERED ON EXISTING ROAD TRAVERSING THE CLEARING; A NON-OBSTRUCTING WIND INDICATOR IS MAINTAINED; NO PILOT BE ALLOWED TO USE HELIPAD UNLESS HE/SHE HAS BEEN GIVEN A MAP
A52-H1 30 FT TO 40 FT TREES ALL QUADRANTS 200 FT TO 1300 FT DISTANCE.
FOR CD CTC GREAT LAKES APCH AT 269-459-3345, WHEN APCH CLSD CTC CLEVELAND ARTCC AT 440-774-0224/0490.

Instrument Procedures

There are no published instrument procedures at 18MI.

Some nearby airports with instrument procedures:

KLAN - Capital Region International Airport (11 nm S)
4D0 - Abrams Municipal Airport (12 nm S)
Y70 - Ionia County Airport (18 nm W)
KAMN - Gratiot Community Airport (22 nm N)
KRNP - Owosso Community Airport (22 nm E)
 
Loc | Ops | Rwys | IFR | FBO | Links
Com | Nav | Svcs | Stats | Notes
Area around 18MI (Vacottage Heliport)
 
Road maps at: MapQuest Bing Google
 
Aerial photo
No photo
 
Sectional chart

 
Airport distance calculator
Flying to Vacottage Heliport? Find the distance to fly.

From to 18MI

Sunrise and sunset
Times for 07-Jul-2020
 Local
(UTC-4)
 Zulu
(UTC)
Morning civil twilight05:3409:34
Sunrise06:0910:09
Sunset21:1801:18
Evening civil twilight21:5301:53

Current date and time
Zulu (UTC)  08-Jul-2020 01:03:36
Local (UTC-4)  07-Jul-2020 21:03:36
 
METAR
KLAN 
11nm S 
080053Z 00000KT 10SM CLR 27/18 A2994 RMK AO2 SLP132 T02670178
KY70 
18nm W 
080056Z AUTO 14007KT 10SM SCT060 26/18 A2993 RMK AO2 T02620182
KAMN 
22nm N 
080056Z AUTO 18003KT 10SM CLR 24/21 A2993 RMK AO2 T02430210
TAF
KLAN 
11nm S 
071732Z 0718/0818 26010KT P6SM VCTS SCT050CB SCT120 SCT250 TEMPO 0719/0723 VRB12G25KT 3SM TSRA OVC035CB FM072300 26008KT P6SM SCT040 FM080100 00000KT P6SM SKC FM081200 11003KT P6SM BKN045 FM081700 18006KT P6SM SCT070
NOTAMs
Click for the latest NOTAMs
NOTAMs are issued by the DoD/FAA and will open in a separate window not controlled by AirNav.

 

 
 

Would you like to see your business listed on this page?

 If your business provides an interesting product or service to pilots, flight crews, aircraft, or users of the Vacottage Heliport, you should consider listing it here.  To start the listing process, click on the button below
 
Add a business
 

Other Pages about Vacottage Heliport

Update a link
 
Copyright © AirNav, LLC. All rights reserved. Privacy Policy  Contact